Regional Weather Roundup
Issued by NWS

Home | Current Version | Previous Version | Graphics & Text | Print | Product List | Glossary On
Versions: 1 2 3 4 5 6 7 8 9 10 11 12 13 14 15 16 17 18 19 20 21 22 23 24 25 26 27
000
ASUS45 KTFX 241210
RWRMT
MONTANA REGIONAL WEATHER ROUNDUP
NATIONAL WEATHER SERVICE GREAT FALLS MT
600 AM MDT THU MAY 24 2018

NOTE: "FAIR" INDICATES FEW OR NO CLOUDS BELOW 12000 FEET WITH NO
SIGNIFICANT WEATHER AND/OR OBSTRUCTIONS TO VISIBILITY.

MTZ001>007-043-241300-
WEST OF THE DIVIDE

CITY           SKY/WX    TMP DP  RH WIND       PRES   REMARKS
KALISPELL      CLOUDY    56  56 100 CALM      29.89R FOG
MISSOULA       CLOUDY    53  52  96 CALM      29.93F
BUTTE          FAIR      46  43  89 S3        30.02R
MULLAN PASS    FOG       47  47 100 NW3       30.00R VSB 1/4
ANACONDA         N/A     48  45  87 CALM      29.99R
DEER LODGE       N/A     52  46  82 S5        30.00R
HAMILTON         N/A     55  48  76 MISG      29.95S
RONAN            N/A     57  55  94 SE3       29.92R
$$

MTZ008-052>055-241300-
SOUTHWEST MONTANA

CITY           SKY/WX    TMP DP  RH WIND       PRES   REMARKS
BOZEMAN        MOCLDY    47  44  90 SE6       29.99R
DILLON         CLOUDY    50  46  86 S9        30.02R
ENNIS          CLOUDY    50  46  87 S12       30.07R
W YELLOWSTONE  CLOUDY    45  45 100 CALM      30.12R
TWIN BRIDGES     N/A     50  44  79 SE7       30.00R
$$

MTZ009-010-012-014-046-048-049-054-241300-
EAST SLOPES AND CENTRAL MONTANA

CITY           SKY/WX    TMP DP  RH WIND       PRES   REMARKS
CUT BANK       FAIR      53  48  83 W8        29.82S
GREAT FALLS    FAIR      57  48  72 S14       29.85S
MALMSTROM AFB  FAIR      52  48  87 SW13      29.85S
HELENA         FAIR      50  49  96 CALM      29.93R
AUGUSTA        FAIR      55  45  69 W12       29.87S
BOWMANS CRNR   FAIR      51  47  86 SW12      29.88R
CHOTEAU          N/A     55  46  71 SW5       29.86S
FAIRFIELD      FAIR      53  46  78 SW5       29.85R
POWER          FAIR      52  48  84 SW9       29.84R
RAYNESFORD     FAIR      47  45  93 CALM      29.88R
ULM            FAIR      54  49  83 CALM      29.87R
WHITE SULPHUR    N/A     54  46  76 S13       29.95S
$$

MTZ011-013-016-021-045-047-050-051-241300-
NORTH CENTRAL MONTANA

CITY           SKY/WX    TMP DP  RH WIND       PRES   REMARKS
HAVRE          FAIR      51  50  96 W3        29.80S
LEWISTOWN      FAIR      45  44  97 SE6       29.89R
N BAR RANCH    MOCLDY    46  45  93 W6        29.93R
CHINOOK          N/A     52  52 100 CALM      29.81S
DENTON         FAIR      48  46  94 S10       29.83S
GEYSER         FAIR      50  45  83 W6        29.87S
GRASS RANGE    FAIR      51  47  88 W15       29.84S
JUDITH GAP     MOCLDY    47  43  85 CALM      29.92R
ROY            FAIR      51  49  91 W7        29.84S
STANFORD       FAIR      49  44  82 S3        29.88S
$$

MTZ017>020-022>027-061-062-241300-
NORTHEAST MONTANA

CITY           SKY/WX    TMP DP  RH WIND       PRES   REMARKS
GLASGOW        FOG       58  57  97 W6        29.78R VSB 1
GLENDIVE       MOCLDY    56  55  97 S8        29.82S
JORDAN           N/A     57  56  96 NW7       29.83R
MALTA          CLEAR     52  52 100 CALM      29.78S
SIDNEY         FAIR      53  52  96 CALM      29.80F
WOLF POINT     FAIR      59  57  93 SW5       29.78S FOG
PLENTYWOOD       N/A     57  57 100 CALM      29.78S
POPLAR           N/A     57  57 100 S3        29.79R
SCOBEY           N/A     58  53  83 CALM      29.79R VSB 0
$$

MTZ028>42-056>058-241300-
SOUTHCENTRAL AND SOUTHEAST MONTANA

CITY           SKY/WX    TMP DP  RH WIND       PRES   REMARKS
BAKER          FAIR      54  53  97 CALM      29.85S
BILLINGS       FAIR      54  51  90 SW10      29.91R
LIVINGSTON     FAIR      58  44  60 SW21G30   29.95S
MILES CITY     CLOUDY    57  57 100 W10       29.85R
BIG TIMBER     CLEAR     54  46  76 SW16      29.95R
EKALAKA          N/A     55  48  77 CALM      29.87S
FORSYTH          N/A     55  55 100 SW3       29.85
HARLOWTON      MOCLDY    53  48  83 W14       29.91R
LAUREL           N/A     52  50  93 SW7       29.92R
ROUNDUP          N/A     51  47  86 S6        29.81R
$$

REGIONAL REPORTS...DAKOTAS

CITY           SKY/WX    TMP DP  RH WIND       PRES   REMARKS
WILLISTON      FAIR      57  55  93 CALM      29.79S
MINOT          FAIR      64  62  93 SE6       29.77S FOG
DICKINSON      FAIR      56  51  84 SW9       29.81S
BEACH          FAIR      54  54 100 N8        29.87R
CROSBY         FAIR      57  57 100 S5        29.79S
TIOGA          FAIR      57  57 100 W9        29.81R
WATFORD CITY   FAIR      55  55 100 SW3       29.81R
BISMARCK       FAIR      65  58  78 SW5       29.83R
GRAND FORKS    PTSUNNY   66  64  93 SE13      29.81F
FARGO          FAIR      71  64  78 S14G24    29.84F
BUFFALO SD       N/A     55  48  77 W8        29.80S
RAPID CITY     FAIR      56  47  71 S9        29.91F
$$

REGIONAL REPORTS...WYOMING/IDAHO/WASHINGTON

CITY           SKY/WX    TMP DP  RH WIND       PRES   REMARKS
GILLETTE       FAIR      50  46  86 SW7       29.94F
SHERIDAN       FAIR      52  49  89 S5        29.94R
BUFFALO WY     FAIR      53  46  77 W6        29.99R
CODY           FAIR      57  42  57 E3        30.01R
YELLOWSTONE LA   N/A     35  34  96 CALM      30.21R
IDAHO FALLS    FAIR      42  42 100 N3        30.08R
SALMON         CLOUDY    54  52  94 CALM      30.03R
BOISE          FAIR      57  53  86 E5        29.98R
SPOKANE        MOCLDY    59  55  87 CALM      29.89R
$$

REGIONAL REPORTS...ALBERTA

CITY           SKY/WX    TMP DP  RH WIND       PRES   REMARKS
CARDSTON         N/A     50  45  81 NE1         N/A
EDMONTON       CLEAR     50  45  81 CALM      29.69F
FORT MCMURRAY  CLEAR     55  43  62 CALM      29.72S
HIGH LEVEL     CLEAR     59  54  82 N7        29.68F
LETHBRIDGE     PTCLDY    52  43  71 SW9       29.76S
LLOYDMINSTER   LGT RAIN  61  54  77 S16       29.76R
MEDICINE HAT   CLEAR     54  50  87 S5        29.75R
PEACE RIVER    PTCLDY    54  41  62 NE5       29.66R
PINCHER CREEK    N/A    N/A N/A N/A W17G25      N/A
WATERTON GATE    N/A     57  43  58 SW17G26     N/A
$$

REGIONAL REPORTS...SASKATCHEWAN

CITY           SKY/WX    TMP DP  RH WIND       PRES   REMARKS
CORONACH         N/A     57  55  94 N3          N/A
CYPRESS HILLS    N/A     52  46  82 SW2         N/A
ESTEVAN        MOCLDY    54  54 100 SE2       29.77F FOG
MOOSE JAW        N/A     59  57  94 E9          N/A
PRINCE ALBERT  LGT RAIN  63  59  88 SW6       29.81S
REGINA         TSTM      59  57  94 W8        29.77S
ROCKGLEN         N/A     57  57 100 N3          N/A
SASKATOON      MOCLDY    61  59  94 N2        29.80S
SWIFT CURRENT  PTCLDY    52  52 100 S8        29.79  FOG
VAL MARIE        N/A     52  50  93 W3          N/A
$$




USA.gov is the U.S. government's official web portal to all federal, state and local government web resources and services.